Weather in Novoselovo

Russia / Krasnoyarsk Krai     55°00′17″N   90°58′05″E
temp.,
°C
wind,
m/s
gust,
m/s
humid.,
%
clouds,
%
prec.,
mm/h
press.,
hPa
HPBL,
m
19 april, mon
mon1901:00+1sse31168100 0.1 1008335
04:00+2sse51373100 0.2 1002460
07:00+4s81686100 1.1 998798
10:00+6sw101777100 0.1 9961681
13:000w131844100 0.3 10051798
16:00−3wnw121649100 0.0 10141691
19:00−4wnw81154100 0.0 10191533
22:00−6nw6863100 0.0 10211076
20 april, tue
tue2001:00−8nw4579100 0.3 1022649
04:00−8w5664100 0.3 10221127
07:00−9w695398 0.3 10231230
10:00−7wnw674157 0.0 10231299
13:00−3wnw5738100 0.0 10221873
16:00−2wnw6838100 0.1 10222120
19:00−3nw684288 0.1 10231679
22:00−5wnw486017 0.0 1025545
21 april, wed
wed2101:00−6wnw36645 0.0 1025577
04:00−7wsw23695 0.0 102691
07:00−6ssw12615 0.0 1027249
10:00−4sw2339100 0.0 10271369
13:00−1ssw2230100 0.0 10261770
16:000e2128100 0.0 10251856
19:00−2ene5546100 0.0 1026643
22:00−3ne2460100 0.0 1028200
22 april, thu
thu2201:00−4n237142 0.0 102869
04:00−5n23745 0.0 1029118
07:00−4nne38625 0.0 1031473
10:000ne78435 0.0 10321290
13:00+2ne6843100 0.0 10331922
16:00+2ne6748100 0.1 10351668
19:00+1nne685880 0.2 1037991
22:00−1nne4107358 0.0 1040346
23 april, fri
fri2301:00−3n23795 0.0 104165
04:00−3nne35805 0.0 1041119
07:00−2nne411690 0.0 1042531
10:00+2ne611465 0.0 1041886
13:00+5ene8104497 0.0 10391609
16:00+6ene81144100 0.0 10371807
19:00+5ne6115256 0.0 10361101
22:00+2ne51363100 0.0 1036668